sat.trackr.live / text

‹ back to catalog

UNKNOWN

NORAD 89146

UNKNOWN UNKNOWN UNKNOWN

§ Identity

Operator
Country
Launch date
Launch site
Launch vehicle
Mass (kg)
RCS (m²)

External: N2YO · Heavens-Above

§ Orbital elements

Epoch: 2026-05-23T18:34:12.158976Z

Period
98.32 min
Inclination
98.2572°
Eccentricity
0.0089313
Mean motion
14.64562333 rev/d
Perigee alt
615.5 km
Apogee alt
741.5 km
Semi-major
7,056.6 km
B*
3.4197e-4
RAAN
77.7749°
Arg perigee
267.8759°
Mean anomaly
91.2214°
Rev number
65,258

§ Raw data

UNKNOWN1 89146U          26143.77375184  .00001869  00000+0  34197-3 0  99962 89146  98.2572  77.7749 0089313 267.8759  91.2214 14.64562333652584

JSON: /api/v1/satellites/89146 · /tle

For live sub-satellite position, see the globe view (requires WebGL).

§ Visibility from observer

Set your observer location to see the next 7 days of passes ≥ 10°. The values pass through the URL so the page stays shareable.

No JS? Fill the form by hand. The geolocation button needs JavaScript.